Location: The Saddle
(36.8333°N, 80.3417°W)
Time: 04:21:07
(UTC-04:00)

Vanguard 3 - Pass Details

Date: 24 February 2024
Orbit: 510 x 3234 km, 33.3° (Epoch: 24 April)

Event Time Altitude Azimuth Distance (km) Brightness Sun altitude
Rises 19:22:16 0° 219° (SW) 6,419 12.3 -15.1°
Reaches altitude 10° 19:26:27 10° 213° (SSW) 5,671 11.9 -15.9°
Maximum altitude 19:43:37 47° 147° (SSE) 3,922 10.3 -19.4°
Enters shadow 19:54:15 27° 95° (E) 4,685 10.3 -21.5°
